KMS 3-2

导读 | 星芒AI

KMS 3-2 是韩国自主研发的军事侦察卫星,于2023年发射,旨在提升韩国的国防侦察能力。该卫星属于韩国军事侦察卫星系统(KMS)的一部分,具备高分辨率光学成像能力,可提供实时情报支持。KMS 3-2 的成功部署标志着韩国在航天与国防技术领域的进一步发展,有助于增强其对周边安全局势的监控与响应能力。

基本信息
目录编号:
39026
目录名称:
KMS 3-2
国际标识:
2012-072A
轨道中心:
EARTH
卫星名称:
KMS 3-2
卫星全名:
--
卫星状态:
已陨落 最后检测时间 2023-09-13
发射日期:
2012-12-12 UTC
国别 :
(KP)
星等 :
--
轨道信息
数据来源 国际轨道数据
星历时间: 2023-09-13T07:20:32+0800
轨道信息已过期824天
半长轴: 6608.561km
偏心率: 0.0006472
轨道倾角: 97.262°
近地点辐角 205.182°
升交点赤经 258.207°
平近点角 154.915°
近地点: 226.148km
远地点: 234.704km
周期: 89.109分钟
每日圈数: 16.160042
详细信息
使用方式:
暂无